TAI450 MSLP-MNMG

Flight info

Callsign TAI450
Flight time 0h 34m
Altitude 25000
Route UMIPI1J UMIPI UA317 URPOS
Aircraft A20N/M-SDE2E3FGHIRWXY/LB1

Departure

Time 2026-04-29 23:56
Airport El Salvador International Airport Saint Óscar Arnulfo Romero y Galdámez (MSLP)

Arrival

Time 2026-04-30 00:30
Airport Augusto C. Sandino (Managua) International Airport (MNMG)
Time Latitude Longitude Altitude Speed Heading
2026-04-29 23:42 13.44414 -89.06021 109 ft 0 kts 160°
2026-04-29 23:46 13.44415 -89.06021 110 ft 0 kts 160°
2026-04-29 23:47 13.44428 -89.06027 110 ft 2 kts 160°
2026-04-29 23:47 13.44442 -89.06032 110 ft 2 kts 168°
2026-04-29 23:47 13.44457 -89.06030 110 ft 2 kts 207°
2026-04-29 23:47 13.44469 -89.06020 110 ft 2 kts 240°
2026-04-29 23:48 13.44472 -89.06014 110 ft 1 kts 255°
2026-04-29 23:48 13.44473 -89.06010 110 ft 0 kts 251°
2026-04-29 23:50 13.44472 -89.06011 109 ft 1 kts 250°
2026-04-29 23:50 13.44459 -89.06050 110 ft 10 kts 250°
2026-04-29 23:50 13.44409 -89.06110 110 ft 4 kts 174°
2026-04-29 23:51 13.44352 -89.06104 109 ft 13 kts 176°
2026-04-29 23:51 13.44237 -89.06092 110 ft 17 kts 159°
2026-04-29 23:51 13.44222 -89.05989 110 ft 17 kts 70°
2026-04-29 23:51 13.44187 -89.05878 110 ft 15 kts 110°
2026-04-29 23:52 13.44213 -89.05769 110 ft 16 kts 69°
2026-04-29 23:52 13.44255 -89.05654 109 ft 17 kts 70°
2026-04-29 23:52 13.44299 -89.05531 110 ft 18 kts 70°
2026-04-29 23:52 13.44344 -89.05401 109 ft 19 kts 70°
2026-04-29 23:53 13.44391 -89.05265 109 ft 20 kts 71°
2026-04-29 23:53 13.44443 -89.05123 110 ft 21 kts 69°
2026-04-29 23:53 13.44494 -89.04980 110 ft 21 kts 70°
2026-04-29 23:53 13.44552 -89.04832 110 ft 22 kts 67°
2026-04-29 23:54 13.44606 -89.04679 110 ft 22 kts 71°
2026-04-29 23:54 13.44659 -89.04525 110 ft 23 kts 70°
2026-04-29 23:54 13.44713 -89.04369 110 ft 23 kts 71°
2026-04-29 23:54 13.44723 -89.04249 110 ft 12 kts 128°
2026-04-29 23:55 13.44640 -89.04212 109 ft 14 kts 164°
2026-04-29 23:55 13.44562 -89.04259 110 ft 18 kts 253°
2026-04-29 23:55 13.44439 -89.04604 110 ft 85 kts 250°
2026-04-29 23:55 13.44168 -89.05363 110 ft 141 kts 250°
2026-04-29 23:56 13.43790 -89.06430 319 ft 167 kts 250°
2026-04-29 23:56 13.43352 -89.07542 867 ft 170 kts 236°
2026-04-29 23:56 13.42392 -89.08202 1449 ft 174 kts 190°
2026-04-29 23:56 13.41208 -89.08025 1993 ft 180 kts 152°
2026-04-29 23:57 13.40319 -89.07085 2279 ft 196 kts 112°
2026-04-29 23:57 13.40217 -89.05668 2582 ft 211 kts 81°
2026-04-29 23:57 13.40508 -89.04100 2825 ft 233 kts 80°
2026-04-29 23:57 13.40681 -89.02393 3199 ft 250 kts 97°
2026-04-29 23:58 13.40169 -89.00639 3631 ft 264 kts 114°
2026-04-29 23:58 13.39372 -88.98939 4332 ft 269 kts 116°
2026-04-29 23:58 13.38533 -88.97201 5114 ft 271 kts 115°
2026-04-29 23:58 13.37719 -88.95467 5883 ft 274 kts 114°
2026-04-29 23:59 13.36904 -88.93683 6665 ft 277 kts 114°
2026-04-29 23:59 13.36101 -88.91885 7438 ft 280 kts 114°
2026-04-29 23:59 13.35300 -88.90076 8213 ft 283 kts 113°
2026-04-29 23:59 13.34486 -88.88223 9001 ft 286 kts 113°
2026-04-30 00:00 13.33676 -88.86373 9758 ft 289 kts 113°
2026-04-30 00:00 13.32840 -88.84461 10469 ft 295 kts 112°
2026-04-30 00:00 13.31986 -88.82503 10863 ft 311 kts 112°
2026-04-30 00:00 13.31071 -88.80398 11189 ft 330 kts 112°
2026-04-30 00:01 13.30108 -88.78187 11498 ft 347 kts 112°
2026-04-30 00:01 13.29098 -88.75871 11796 ft 363 kts 112°
2026-04-30 00:01 13.28050 -88.73466 12267 ft 373 kts 112°
2026-04-30 00:01 13.26984 -88.71026 12944 ft 377 kts 112°
2026-04-30 00:02 13.25906 -88.68559 13635 ft 379 kts 112°
2026-04-30 00:02 13.24825 -88.66082 14297 ft 382 kts 112°
2026-04-30 00:02 13.23747 -88.63614 14942 ft 385 kts 111°
2026-04-30 00:02 13.22648 -88.61094 15581 ft 389 kts 111°
2026-04-30 00:03 13.21533 -88.58542 16211 ft 392 kts 111°
2026-04-30 00:03 13.20412 -88.55974 16827 ft 395 kts 111°
2026-04-30 00:03 13.19290 -88.53404 17429 ft 398 kts 111°
2026-04-30 00:03 13.18150 -88.50797 18029 ft 401 kts 111°
2026-04-30 00:04 13.17001 -88.48171 18618 ft 404 kts 111°
2026-04-30 00:04 13.15861 -88.45563 19188 ft 407 kts 111°
2026-04-30 00:04 13.14694 -88.42904 19760 ft 410 kts 111°
2026-04-30 00:04 13.13516 -88.40223 20310 ft 413 kts 110°
2026-04-30 00:05 13.12324 -88.37512 20850 ft 416 kts 111°
2026-04-30 00:05 13.11138 -88.34815 21377 ft 419 kts 111°
2026-04-30 00:05 13.09941 -88.32083 21883 ft 422 kts 111°
2026-04-30 00:05 13.08733 -88.29330 22378 ft 425 kts 111°
2026-04-30 00:06 13.07522 -88.26572 22861 ft 428 kts 111°
2026-04-30 00:06 13.06302 -88.23797 23341 ft 430 kts 111°
2026-04-30 00:06 13.05049 -88.20949 23803 ft 433 kts 111°
2026-04-30 00:06 13.03824 -88.18166 24237 ft 436 kts 111°
2026-04-30 00:07 13.02560 -88.15292 24640 ft 439 kts 111°
2026-04-30 00:07 13.01309 -88.12450 24782 ft 441 kts 111°
2026-04-30 00:07 13.00011 -88.09510 24784 ft 441 kts 111°
2026-04-30 00:07 12.98740 -88.06634 24789 ft 441 kts 111°
2026-04-30 00:08 12.97455 -88.03725 24794 ft 441 kts 111°
2026-04-30 00:08 12.96181 -88.00840 24805 ft 442 kts 111°
2026-04-30 00:08 12.94903 -87.97939 24818 ft 443 kts 112°
2026-04-30 00:08 12.93621 -87.95034 24838 ft 445 kts 112°
2026-04-30 00:09 12.92344 -87.92149 24857 ft 446 kts 112°
2026-04-30 00:09 12.91051 -87.89231 24873 ft 446 kts 112°
2026-04-30 00:09 12.89749 -87.86294 24886 ft 446 kts 112°
2026-04-30 00:09 12.88441 -87.83365 24896 ft 447 kts 113°
2026-04-30 00:10 12.87134 -87.80449 24903 ft 447 kts 113°
2026-04-30 00:10 12.85849 -87.77586 24905 ft 447 kts 113°
2026-04-30 00:10 12.84546 -87.74676 24907 ft 447 kts 112°
2026-04-30 00:10 12.83249 -87.71776 24910 ft 447 kts 113°
2026-04-30 00:11 12.81966 -87.68902 24914 ft 447 kts 113°
2026-04-30 00:11 12.80669 -87.65985 24921 ft 449 kts 113°
2026-04-30 00:11 12.79363 -87.63058 24933 ft 450 kts 113°
2026-04-30 00:11 12.78074 -87.60173 24948 ft 450 kts 114°
2026-04-30 00:12 12.76760 -87.57231 24964 ft 450 kts 114°
2026-04-30 00:12 12.75455 -87.54314 24767 ft 448 kts 113°
2026-04-30 00:12 12.74169 -87.51442 23949 ft 452 kts 113°
2026-04-30 00:12 12.72857 -87.48511 23142 ft 451 kts 113°
2026-04-30 00:13 12.71557 -87.45598 22601 ft 445 kts 113°
2026-04-30 00:13 12.70285 -87.42749 22067 ft 440 kts 112°
2026-04-30 00:13 12.69020 -87.39918 21524 ft 434 kts 112°
2026-04-30 00:13 12.67769 -87.37115 20979 ft 430 kts 113°
2026-04-30 00:14 12.66523 -87.34328 20426 ft 425 kts 113°
2026-04-30 00:14 12.65296 -87.31572 19874 ft 421 kts 113°
2026-04-30 00:14 12.64094 -87.28874 19333 ft 417 kts 113°
2026-04-30 00:14 12.62896 -87.26193 18794 ft 413 kts 113°
2026-04-30 00:15 12.61693 -87.23501 18256 ft 409 kts 113°
2026-04-30 00:15 12.60511 -87.20860 17730 ft 405 kts 113°
2026-04-30 00:15 12.59336 -87.18237 17231 ft 400 kts 113°
2026-04-30 00:15 12.58179 -87.15659 16793 ft 395 kts 113°
2026-04-30 00:16 12.57052 -87.13155 16348 ft 390 kts 114°
2026-04-30 00:16 12.55842 -87.10722 15880 ft 387 kts 117°
2026-04-30 00:16 12.54464 -87.08325 15394 ft 384 kts 121°
2026-04-30 00:16 12.53006 -87.06057 14919 ft 381 kts 122°
2026-04-30 00:17 12.51535 -87.03810 14436 ft 378 kts 122°
2026-04-30 00:17 12.50084 -87.01598 13958 ft 375 kts 122°
2026-04-30 00:17 12.48623 -86.99372 13479 ft 372 kts 122°
2026-04-30 00:17 12.47184 -86.97178 13007 ft 369 kts 122°
2026-04-30 00:18 12.45777 -86.95030 12540 ft 366 kts 122°
2026-04-30 00:18 12.44351 -86.92851 12061 ft 363 kts 122°
2026-04-30 00:18 12.42951 -86.90713 11591 ft 360 kts 122°
2026-04-30 00:18 12.41585 -86.88628 11138 ft 357 kts 122°
2026-04-30 00:19 12.40209 -86.86526 10689 ft 353 kts 122°
2026-04-30 00:19 12.38846 -86.84444 10444 ft 342 kts 122°
2026-04-30 00:19 12.37558 -86.82482 10353 ft 327 kts 121°
2026-04-30 00:19 12.36325 -86.80601 10252 ft 313 kts 121°
2026-04-30 00:20 12.35141 -86.78795 10159 ft 299 kts 121°
2026-04-30 00:20 12.34002 -86.77058 10078 ft 285 kts 121°
2026-04-30 00:20 12.32920 -86.75408 9995 ft 275 kts 121°
2026-04-30 00:20 12.31856 -86.73785 9639 ft 275 kts 121°
2026-04-30 00:21 12.30803 -86.72179 9320 ft 273 kts 121°
2026-04-30 00:21 12.29747 -86.70571 9003 ft 271 kts 121°
2026-04-30 00:21 12.28684 -86.68984 8669 ft 269 kts 121°
2026-04-30 00:21 12.27628 -86.67415 8338 ft 267 kts 122°
2026-04-30 00:22 12.26578 -86.65859 8008 ft 265 kts 121°
2026-04-30 00:22 12.25532 -86.64307 7682 ft 264 kts 121°
2026-04-30 00:22 12.24497 -86.62767 7355 ft 262 kts 121°
2026-04-30 00:22 12.23462 -86.61229 7027 ft 260 kts 121°
2026-04-30 00:23 12.22443 -86.59716 6708 ft 258 kts 121°
2026-04-30 00:23 12.21427 -86.58207 6390 ft 256 kts 121°
2026-04-30 00:23 12.20416 -86.56706 6074 ft 254 kts 121°
2026-04-30 00:23 12.19419 -86.55225 5761 ft 252 kts 121°
2026-04-30 00:24 12.18556 -86.53693 5458 ft 247 kts 110°
2026-04-30 00:24 12.18077 -86.52003 5160 ft 243 kts 98°
2026-04-30 00:24 12.17865 -86.50261 5012 ft 254 kts 95°
2026-04-30 00:24 12.17687 -86.48432 5010 ft 256 kts 95°
2026-04-30 00:25 12.17508 -86.46629 5006 ft 257 kts 95°
2026-04-30 00:25 12.17315 -86.44810 5004 ft 255 kts 95°
2026-04-30 00:25 12.17119 -86.43053 4970 ft 241 kts 96°
2026-04-30 00:25 12.16930 -86.41384 4780 ft 234 kts 96°
2026-04-30 00:26 12.16743 -86.39748 4473 ft 232 kts 96°
2026-04-30 00:26 12.16556 -86.38115 4156 ft 230 kts 96°
2026-04-30 00:26 12.16370 -86.36485 3839 ft 228 kts 96°
2026-04-30 00:26 12.16188 -86.34879 3526 ft 226 kts 96°
2026-04-30 00:27 12.16009 -86.33294 3219 ft 224 kts 96°
2026-04-30 00:27 12.15832 -86.31724 2914 ft 222 kts 96°
2026-04-30 00:27 12.15656 -86.30162 2609 ft 220 kts 96°
2026-04-30 00:27 12.15484 -86.28636 2305 ft 211 kts 97°
2026-04-30 00:28 12.15323 -86.27201 2014 ft 195 kts 97°
2026-04-30 00:28 12.15170 -86.25845 1849 ft 183 kts 97°
2026-04-30 00:28 12.15033 -86.24618 1565 ft 167 kts 97°
2026-04-30 00:28 12.14907 -86.23482 1310 ft 157 kts 98°
2026-04-30 00:29 12.14787 -86.22411 1079 ft 148 kts 98°
2026-04-30 00:29 12.14669 -86.21365 892 ft 147 kts 98°
2026-04-30 00:29 12.14552 -86.20327 699 ft 147 kts 98°
2026-04-30 00:29 12.14435 -86.19280 500 ft 146 kts 98°
2026-04-30 00:30 12.14322 -86.18254 312 ft 146 kts 98°
2026-04-30 00:30 12.14203 -86.17249 200 ft 132 kts 98°
2026-04-30 00:30 12.14121 -86.16493 200 ft 75 kts 97°
2026-04-30 00:30 12.14090 -86.16191 200 ft 28 kts 96°
2026-04-30 00:31 12.14090 -86.16083 200 ft 6 kts 110°
2026-04-30 00:31 12.14073 -86.16072 200 ft 1 kts 178°
2026-04-30 00:31 12.14063 -86.16080 200 ft 4 kts 245°
2026-04-30 00:31 12.14074 -86.16126 200 ft 8 kts 287°
2026-04-30 00:32 12.14087 -86.16190 200 ft 10 kts 276°
2026-04-30 00:32 12.14095 -86.16269 200 ft 12 kts 275°
2026-04-30 00:32 12.14104 -86.16362 200 ft 13 kts 276°
2026-04-30 00:32 12.14116 -86.16465 200 ft 15 kts 277°
2026-04-30 00:33 12.14146 -86.16573 200 ft 16 kts 309°
2026-04-30 00:33 12.14241 -86.16633 200 ft 12 kts 330°
2026-04-30 00:33 12.14280 -86.16713 200 ft 13 kts 276°
2026-04-30 00:33 12.14291 -86.16812 200 ft 14 kts 276°
2026-04-30 00:34 12.14302 -86.16924 200 ft 16 kts 277°
2026-04-30 00:34 12.14316 -86.17010 200 ft 5 kts 306°
2026-04-30 00:34 12.14360 -86.17014 200 ft 6 kts
2026-04-30 00:34 12.14385 -86.17011 200 ft 0 kts